Regional Weather Roundup
Issued by NWS

Home | Current Version | Previous Version | Text Only | Print | Product List | Glossary Off
Versions: 1 2 3 4 5 6 7 8 9 10 11 12 13 14 15 16 17 18 19 20 21 22 23 24 25 26 27 28 29 30 31 32 33 34 35 36 37 38 39 40 41 42 43 44 45 46 47 48 49 50

000
ASUS43 KLOT 281612
RWRIL

ILLINOIS REGIONAL WEATHER ROUNDUP
NATIONAL WEATHER SERVICE CHICAGO/ROMEOVILLE IL
1100 AM CDT TUE JUL 28 2015

NOTE: "FAIR" INDICATES FEW OR NO CLOUDS BELOW 12,000 FEET WITH NO
SIGNIFICANT WEATHER AND/OR OBSTRUCTIONS TO VISIBILITY.

* THESE STATIONS ARE NOT UNDER NWS QUALITY CONTROL. THEY ALSO MAY NOT
  REPORT WEATHER SUCH AS PRECIPITATION OR FOG.

ILZ001-002-007-009-015-016-024-281700-
NORTHWEST ILLINOIS

CITY           SKY/WX    TMP DP  RH WIND       PRES   REMARKS
MOLINE         TSTM      76  73  91 NE12      29.98R FOG
STERLING*      PTSUNNY   82  73  74 S3        29.98R HX  88
SAVANNA*       CLOUDY    80  70  72 SE5       29.99S HX  83
$$

ILZ003-004-008-010-011-017-018-281700-
NORTH CENTRAL ILLINOIS

CITY           SKY/WX    TMP DP  RH WIND       PRES   REMARKS
ROCKFORD       PTSUNNY   83  71  67 SW7       30.01F HX  87
FREEPORT*      PTSUNNY   81  72  74 SE7       30.01S HX  85
ROCHELLE*      MOSUNNY   82  73  75 CALM      30.00F HX  87
DE KALB*       MOSUNNY   80  71  74 S5        30.01F HX  84
PERU*          MOSUNNY   84  73  68 SE5       29.99S HX  90
$$

ILZ005-006-012>014-019>023-281700-
NORTHEAST ILLINOIS

CITY           SKY/WX    TMP DP  RH WIND       PRES   REMARKS
CHICAGO-OHARE  PTSUNNY   84  68  58 S6        29.99R HX  87
CHICAGO-MIDWAY PTSUNNY   88  68  51 S8        30.00R HX  91
AURORA         MOSUNNY   83  70  64 S6        30.01R HX  87
LANSING*       PTSUNNY   84  67  56 CALM      30.00R HX  87
JOLIET*        MOSUNNY   85  74  68 SE5       29.99R HX  93
WAUKEGAN       MOSUNNY   80  67  64 SE8       30.00R HX  82
DUPAGE AIRPORT MOSUNNY   85  70  60 S6        30.00R HX  89
KANKAKEE*      MOSUNNY   84  74  73 SE3       30.00R HX  91
WHEELING       MOSUNNY   85  65  51 SE7       30.01R HX  86
MORRIS*        MOSUNNY   83  73  72 SE3       29.99R HX  89
ROMEOVILLE*    MOSUNNY   85  70  61 SE7       30.00R HX  89
NORTHERLY ISL    N/A     79  68  69 NE7         N/A  HX  81
$$

LMZ740>746-281700-
SOUTHERN LAKE MICHIGAN

STATION/POSITION SKY/WX   TEMP    WIND        PRES    VSBY  WAVE
                          AIR SEA DIR/SP/G                  HT/PER
                          (F)     (DEG/KT/KT) (MB)    (MI)  (FT/S)
HARRISON CRIB              75     100/  8/  9   N/A
BURNHAM HARBOR             79      60/  5/  6   N/A
CALUMET HARBOR             82     130/  7/  9   N/A
BURNS HARBOR               84     120/  6/ 13 1015.9S
MICHIGAN CITY              81     110/  9/ 11   N/A
MICHIGAN CITY 6N           79 75  170/  4/  6   N/A           1
ST. JOSEPH                 78 74  190/  6/  8   N/A           1
$$

ILZ025>027-034>036-040-047-049-050-058-095>099-281700-
WEST-CENTRAL ILLINOIS

CITY           SKY/WX    TMP DP  RH WIND       PRES   REMARKS
QUINCY         MOSUNNY   85  77  77 CALM      29.96S HX  95
GALESBURG*     MOSUNNY   83  76  79 S6        29.97R HX  91
MACOMB*        MOSUNNY   83  76  78 S7        29.99S HX  91
JACKSONVILLE*  PTSUNNY   85  76  75 S5        29.97R HX  95
PITTSFIELD*    SUNNY     84  77  78 SE3       29.98R HX  93
$$

ILZ028>032-037-038-041>044-048-051>054-059>061-281700-
CENTRAL ILLINOIS

CITY           SKY/WX    TMP DP  RH WIND       PRES   REMARKS
PONTIAC        PTSUNNY   84  76  77 CALM      30.00R HX  92
BLOOMINGTON    MOSUNNY   87  76  69 SE5       30.00R HX  97
DECATUR        MOSUNNY   86  77  74 SE5       29.98S HX  97
PEORIA         PTSUNNY   87  75  67 CALM      29.97S HX  96
LACON*         MOSUNNY   83  73  70 E3        29.97S HX  89
LINCOLN*       MOSUNNY   86  76  70 SE3       29.97R HX  96
SPRINGFIELD    MOSUNNY   88  76  67 SW5       29.98R HX  99
TAYLORVILLE    MOSUNNY   82  77  83 CALM      29.98R HX  91
$$

ILZ033-039-045-046-055>057-062-063-281700-
EAST-CENTRAL ILLINOIS

CITY           SKY/WX    TMP DP  RH WIND       PRES   REMARKS
CHAMPAIGN      MOSUNNY   86  74  67 VRB3      30.00R HX  94
DANVILLE*      MOSUNNY   83  77  80 CALM      29.97S HAZE    HX  93
RANTOUL*       MOSUNNY   86  78  76 SW5       29.99R HX  98
MATTOON        SUNNY     84  73  69 VRB5      29.99R HX  90
PARIS*         SUNNY     85  76  74 S3        30.00R HX  95
$$

ILZ079-100>102-281700-
SOUTHWEST ILLINOIS

CITY           SKY/WX    TMP DP  RH WIND       PRES   REMARKS
ALTON          PTSUNNY   86  77  74 CALM      29.98R HX  97
BELLEVILLE     MOSUNNY   87  81  82 VRB3      29.96S HX 105
CAHOKIA*       SUNNY     89  77  67 S5        29.97R HX 101
SPARTA*        SUNNY     86  79  78 SW3       29.99S HX  99
$$

ILZ064>066-069>071-074>076-080>082-084>086-088>090-092>094-281700-
SOUTH-CENTRAL ILLINOIS

CITY           SKY/WX    TMP DP  RH WIND       PRES   REMARKS
CARBONDALE     SUNNY     88  78  72 W7        29.98S HX 101
CAIRO*         SUNNY     88  79  76 SW5       29.99R HX 102
EFFINGHAM*     SUNNY     86  71  62 SW5       30.00R HX  91
MARION         SUNNY     88  79  74 SW6       29.99S HX 102
MT. VERNON     SUNNY     88  75  66 CALM      29.99R HX  97
CENTRALIA*     SUNNY     86  74  66 W5        29.99R HX  94
SALEM*         SUNNY     87  74  66 W6        29.99R HX  96
METROPOLIS*    SUNNY     90  79  71 SW5       30.00R HX 106
$$

ILZ067-068-072-073-078-083-087-091-281700-
SOUTHEAST ILLINOIS

CITY           SKY/WX    TMP DP  RH WIND       PRES   REMARKS
LAWRENCEVILLE  SUNNY     86  76  71 S5        29.99R HX  96
FLORA*         SUNNY     85  74  70 SW3       29.99R HX  92
FAIRFIELD*     SUNNY     85  77  75 CALM      29.97S HX  95
HARRISBURG*    SUNNY     87  79  77 SW6       29.99S HX 102
ROBINSON*      MOSUNNY   84  77  80 CALM      30.00R HX  93
CARMI*         SUNNY     85  71  63 CALM      29.98R HX  90
$$

ABBREVIATIONS USED IN REMARKS
   TC - TEMPERATURE IN CELSIUS
  WCI - WIND CHILL INDEX
   HX - HEAT INDEX
  VSB - VISIBILITY
$$



USA.gov is the U.S. government's official web portal to all federal, state and local government web resources and services.